[[{"header":{"parameterUnit":"m.s-1","parameterCategory":1,"la1":30.2991,"la2":30.254,"lo1":-89.0895,"lo2":-89.0444,"dy":0.0017,"dx":0.0017,"nx":28,"ny":28,"refTime":"2024-12-25T09:00:00:Z","depth":0,"parameterNumber":2,"parameterNumberName":"U-component_of_WINDS"},"data":[0,0,0,0,0,0,0,0,0,0,0,0,0,0,0,0,0,0,0,0,0,0,0,0,0,0,0,0,0,0,0,0,0,0,0,0,0,0,0,0,0,0,0,0,0,0,0,0,0,0,0,0,0,0,0,0,0,0,-6.0085,-6.0086,0,-6.0193,-6.0194,-6.0195,-6.0157,-6.0155,-6.0152,-6.015,-6.026,-6.0265,-6.027,0,0,0,0,0,0,0,0,0,0,0,0,0,-5.9845,-5.985,-6.0084,-6.0086,-6.0087,-6.0193,-6.0194,-6.0196,-6.0157,-6.0154,-6.0151,-6.0149,-6.0258,-6.0264,-6.027,0,0,0,0,0,0,0,0,0,0,0,0,0,-5.9951,-5.9851,-6.0084,-6.0081,-6.0082,-6.0192,-6.0194,-6.0196,-6.0158,-6.0154,-6.0151,-6.0147,-6.0256,-6.0264,-6.0271,-6.0391,0,0,-6.0295,-6.0298,0,0,0,0,0,0,0,0,-5.9945,-5.996,-6.008,-6.0081,-6.0082,-6.0158,-6.015,-6.0261,-6.0159,-6.0129,-6.015,-6.0146,-6.0229,-6.0238,-6.0267,-6.0397,-6.0401,-6.0296,-6.03,-6.0304,-6.0306,0,0,0,0,0,0,0,-5.9938,-5.9955,-6.0127,-6.0082,-6.0083,-6.0074,-6.0085,-6.0171,-6.0198,-6.0131,-6.0129,-6.0142,-6.0229,-6.0259,-6.0269,-6.0403,-6.0295,-6.0302,-6.0307,-6.031,-6.0639,-6.0643,0,0,0,0,0,0,-5.993,-5.9949,-6.0124,-6.013,-6.0003,-6.0081,-6.0094,-6.0137,-6.0197,-6.0202,-6.0145,-6.014,-6.0248,-6.026,-6.0273,-6.0418,-6.0304,-6.0311,-6.0315,-6.0635,-6.064,-6.0644,0,0,0,0,0,0,-5.9925,-5.9946,-6.0119,-6.0039,-6.0061,-6.0089,-6.0138,-6.0141,-6.0172,-6.0207,-6.0212,-6.0171,-6.0245,-6.0262,-6.0363,-6.0421,-6.0314,-6.0321,-6.063,-6.0636,-6.0642,-6.0709,0,0,0,0,0,0,-5.9918,-5.9944,-5.999,-6.004,-6.0065,-6.0207,-6.0142,-6.0146,-6.0185,-6.018,-6.0233,-6.0238,-6.0244,-6.0351,-6.037,-6.043,-6.0328,-6.0625,-6.0633,-6.064,-6.0701,-6.0716,-6.0729,0,0,0,0,0,-5.991,-6.0003,-5.9992,-6.0013,-6.0123,-6.0211,-6.0225,-6.0229,-6.019,-6.0236,-6.026,-6.0237,-6.0412,-6.0362,-6.0383,-6.0446,-6.0621,-6.0631,-6.0639,-6.0695,-6.0713,-6.0729,0,0,0,0,0,0,-5.9957,-6.001,-5.9998,-6.0111,-6.0157,-6.0204,-6.0262,-6.0248,-6.0306,-6.0298,-6.0301,-6.0314,-6.0418,-6.0442,-6.0385,-6.0566,-6.0511,-6.0525,-6.0546,-6.0564,-6.0577,-6.0568,-6.0334,0,0,0,0,0,-5.9981,-6.0049,-6.0091,-6.0187,-6.0211,-6.0233,-6.0271,-6.0271,-6.0319,-6.0338,-6.0368,-6.0415,-6.0481,-6.0524,-6.0586,-6.0706,-6.0717,-6.0759,-6.0773,-6.0785,-6.0796,-6.0862,-6.0881,-6.0674,-6.0674,-6.0674,0,0,-6.003,-6.0068,-6.011,-6.0197,-6.0233,-6.0303,-6.0249,-6.0325,-6.0377,-6.0349,-6.0446,-6.0471,-6.0523,-6.0634,-6.0685,-6.0658,-6.0856,-6.0796,-6.0805,-6.081,-6.0873,-6.0893,-6.091,-6.0681,-6.0679,-6.0678,0,0,-6.0156,-6.0191,-6.0275,-6.0313,-6.0368,-6.0383,-6.0403,-6.0454,-6.0469,-6.0567,-6.0548,-6.0611,-6.0723,-6.0762,-6.0797,-6.0941,-6.0922,-6.0962,-6.1033,-6.1098,-6.1114,-6.1128,-6.118,-6.1198,-6.0973,-6.0973,-6.0974,0,-6.021,-6.0315,-6.032,-6.0398,-6.0438,-6.0418,-6.0503,-6.0539,-6.0612,-6.064,-6.0609,-6.0752,-6.0786,-6.0906,-6.0942,-6.0971,-6.0994,-6.0954,-6.1111,-6.1126,-6.1139,-6.1188,-6.1208,-6.0978,-6.0977,-6.0977,-6.0976,0,-6.0379,-6.0452,-6.0513,-6.0585,-6.0632,-6.0713,-6.0731,-6.0778,-6.0775,-6.0794,-6.0895,-6.0935,-6.1006,-6.1035,-6.1033,-6.1156,-6.1138,-6.111,-6.1054,-6.1163,-6.1209,-6.1228,-6.0984,-6.0982,-6.0981,-6.098,0,0,-6.0533,-6.061,-6.0632,-6.0665,-6.0726,-6.0783,-6.0865,-6.0935,-6.0975,-6.1027,-6.1095,-6.1194,-6.1168,-6.1208,-6.121,-6.1267,-6.1379,-6.1232,-6.1233,-6.1257,-6.1518,-6.1538,-6.1559,-6.1368,-6.1372,-6.1375,-6.1513,0,-6.0663,-6.0806,-6.0815,-6.0944,-6.1013,-6.0997,-6.1068,-6.1114,-6.1134,-6.1195,-6.1218,-6.1287,-6.1249,-6.1272,-6.1328,-6.1353,-6.1431,-6.1344,-6.1431,-6.1434,-6.1417,-6.1583,-6.1604,-6.1732,-6.1531,-6.1534,-6.1537,0,-6.0832,-6.0891,-6.1027,-6.1081,-6.111,-6.1174,-6.124,-6.1299,-6.1351,-6.1362,-6.1408,-6.1403,-6.1488,-6.1431,-6.1548,-6.1488,-6.1525,-6.1544,-6.1549,-6.1555,-6.149,-6.1593,-6.1773,-6.1792,-6.1565,-6.1563,-6.1561,0,-6.093,-6.1044,-6.114,-6.117,-6.1235,-6.128,-6.1309,-6.1358,-6.1401,-6.1459,-6.1487,-6.1555,-6.1591,-6.1644,-6.1658,-6.1615,-6.1775,-6.1719,-6.1786,-6.1786,-6.1818,-6.1815,-6.2005,-6.1845,-6.1844,-6.1844,-6.1844,0,-6.1073,-6.1157,-6.1186,-6.1245,-6.1339,-6.135,-6.1443,-6.147,-6.1514,-6.1579,-6.157,-6.1631,-6.1646,-6.171,-6.1722,-6.1817,-6.1834,-6.1845,-6.1847,-6.1845,-6.1843,-6.1867,-6.1858,-6.1849,-6.1848,-6.1847,-6.1846,0,-6.1197,-6.122,-6.1324,-6.1379,-6.1395,-6.1462,-6.1508,-6.1566,-6.1587,-6.1669,-6.1689,-6.1721,-6.1796,-6.1816,-6.1906,-6.1914,-6.2026,-6.202,-6.2008,-6.2007,-6.2073,-6.2066,-6.2283,-6.2312,-6.2134,-6.2136,-6.2137,0,-6.1285,-6.135,-6.1413,-6.1456,-6.1487,-6.1557,-6.1601,-6.1615,-6.1661,-6.1728,-6.1777,-6.1852,-6.1912,-6.2033,-6.2065,-6.2134,-6.2129,-6.2201,-6.2139,-6.2136,-6.2129,-6.2124,-6.2131,-6.2211,-6.2213,-6.2215,-6.2216,0,-6.144,-6.1449,-6.1513,-6.1582,-6.1635,-6.169,-6.1742,-6.1778,-6.18,-6.1853,-6.193,-6.1977,-6.2071,-6.2145,-6.2215,-6.2246,-6.2235,-6.2236,-6.2255,-6.2252,-6.2242,-6.2248,-6.2038,-6.223,-6.2229,-6.2227,-6.2227,-6.2226,-6.1548,-6.1605,-6.1659,-6.1731,-6.1773,-6.1823,-6.188,-6.1909,-6.1974,-6.2051,-6.2056,-6.2141,-6.2194,-6.2288,-6.2323,-6.2389,-6.2367,-6.2395,-6.2402,-6.2408,-6.2413,-6.2234,-6.2402,-6.2402,-6.2401,-6.2401,-6.2401,0,-6.1701,-6.1735,-6.1802,-6.1877,-6.1934,-6.1922,-6.198,-6.2028,-6.2103,-6.2154,-6.2214,-6.2304,-6.2377,-6.2416,-6.2489,-6.2535,-6.2532,-6.2553,-6.2549,-6.2556,-6.2429,-6.2404,-6.2555,-6.2555,-6.2554,-6.2554,-6.2554,-6.2554,-6.1787,-6.1883,-6.1899,-6.2017,-6.2051,-6.2134,-6.2169,-6.2215,-6.2256,-6.2358,-6.2419,-6.2444,-6.2491,-6.2567,-6.2634,-6.2644,-6.267,-6.2695,-6.2701,-6.2581,-6.2565,-6.255,-6.2527,-6.2701,-6.2701,-6.2823,-6.2824,-6.2825]},{"header":{"parameterUnit":"m.s-1","parameterCategory":1,"la1":30.2991,"la2":30.254,"lo1":-89.0895,"lo2":-89.0444,"dy":0.0017,"dx":0.0017,"nx":28,"ny":28,"refTime":"2024-12-25T09:00:00:Z","depth":0,"parameterNumber":3,"parameterNumberName":"V-component_of_WINDS"},"data":[0,0,0,0,0,0,0,0,0,0,0,0,0,0,0,0,0,0,0,0,0,0,0,0,0,0,0,0,0,0,0,0,0,0,0,0,0,0,0,0,0,0,0,0,0,0,0,0,0,0,0,0,0,0,0,0,0,0,1.6637,1.6638,0,1.6677,1.6678,1.6678,1.6695,1.6695,1.6695,1.6695,1.6733,1.6734,1.6735,0,0,0,0,0,0,0,0,0,0,0,0,0,1.6576,1.6577,1.6637,1.6638,1.6638,1.6677,1.6678,1.6678,1.6695,1.6695,1.6695,1.6695,1.6733,1.6734,1.6736,0,0,0,0,0,0,0,0,0,0,0,0,0,1.6608,1.6578,1.6637,1.6652,1.6653,1.6677,1.6678,1.6678,1.6695,1.6695,1.6695,1.6695,1.6733,1.6734,1.6736,1.6747,0,0,1.6741,1.6741,0,0,0,0,0,0,0,0,1.6606,1.661,1.6649,1.6651,1.6653,1.6681,1.667,1.6701,1.6695,1.6679,1.6695,1.6695,1.6716,1.6719,1.6727,1.6749,1.6751,1.6741,1.6742,1.6742,1.6743,0,0,0,0,0,0,0,1.6604,1.6609,1.6653,1.665,1.6652,1.6656,1.6661,1.6676,1.6698,1.6681,1.6682,1.6687,1.6717,1.6725,1.6728,1.6751,1.6741,1.6742,1.6743,1.6744,1.679,1.679,0,0,0,0,0,0,1.66,1.6607,1.6652,1.6654,1.6629,1.6657,1.6662,1.6672,1.6697,1.6701,1.6687,1.6687,1.6722,1.6726,1.6729,1.6747,1.6742,1.6744,1.6745,1.6789,1.679,1.679,0,0,0,0,0,0,1.6598,1.6604,1.665,1.6631,1.6637,1.6659,1.6669,1.6673,1.6681,1.6702,1.6706,1.6691,1.6722,1.6727,1.6744,1.6748,1.6745,1.6746,1.6789,1.6789,1.679,1.6781,0,0,0,0,0,0,1.6596,1.6603,1.6607,1.6631,1.6638,1.6664,1.667,1.6674,1.6684,1.6685,1.6707,1.6711,1.6723,1.6741,1.6745,1.675,1.6747,1.6789,1.6789,1.679,1.6781,1.6781,1.6781,0,0,0,0,0,1.6594,1.6602,1.6607,1.6613,1.6644,1.6664,1.6668,1.6683,1.6684,1.6689,1.6703,1.671,1.6747,1.6743,1.6748,1.6753,1.6789,1.6789,1.679,1.6781,1.6781,1.6781,0,0,0,0,0,0,1.6576,1.6605,1.6611,1.6627,1.6643,1.6667,1.6673,1.6682,1.6697,1.6698,1.6714,1.6719,1.6736,1.6746,1.6741,1.6768,1.6769,1.677,1.676,1.6761,1.6761,1.6758,1.6749,0,0,0,0,0,1.6574,1.6588,1.6613,1.6624,1.6632,1.6652,1.6661,1.6671,1.6688,1.6695,1.671,1.6726,1.6742,1.6752,1.6767,1.6783,1.6789,1.6789,1.6789,1.6789,1.6791,1.6803,1.6804,1.6792,1.6792,1.6792,0,0,1.6569,1.6587,1.6594,1.6621,1.6634,1.665,1.6657,1.6671,1.6683,1.6697,1.6715,1.6727,1.6746,1.6764,1.6772,1.6773,1.6796,1.679,1.679,1.6791,1.6804,1.6805,1.6806,1.6792,1.6792,1.6792,0,0,1.6568,1.6583,1.6595,1.661,1.6632,1.6646,1.6649,1.6673,1.6682,1.6701,1.6712,1.6726,1.6752,1.6767,1.6777,1.6787,1.6795,1.6792,1.6792,1.6804,1.6805,1.6806,1.6811,1.6813,1.6793,1.6793,1.6793,0,1.6559,1.6583,1.66,1.6616,1.6628,1.6643,1.6657,1.667,1.6696,1.6704,1.6705,1.6741,1.6754,1.6777,1.678,1.6787,1.6793,1.6789,1.6803,1.6804,1.6806,1.6811,1.6813,1.6792,1.6792,1.6792,1.6792,0,1.6572,1.6589,1.6596,1.6623,1.6636,1.665,1.6671,1.6682,1.6692,1.6706,1.6727,1.6744,1.6765,1.6771,1.678,1.6796,1.6797,1.68,1.6801,1.6806,1.6812,1.6814,1.6792,1.6792,1.6792,1.6792,0,0,1.6559,1.6598,1.6601,1.6615,1.6642,1.6655,1.6671,1.6694,1.6704,1.6722,1.6737,1.6761,1.6766,1.6778,1.6789,1.6799,1.6809,1.6802,1.6803,1.6804,1.6831,1.683,1.6832,1.6815,1.6815,1.6815,1.6831,0,1.6563,1.6594,1.6612,1.6635,1.6652,1.6669,1.6684,1.6702,1.6717,1.6733,1.6749,1.6766,1.677,1.6778,1.6789,1.6806,1.6815,1.6805,1.683,1.683,1.6825,1.6834,1.6831,1.6845,1.6833,1.6833,1.6833,0,1.6572,1.6592,1.6618,1.6648,1.6655,1.6668,1.6692,1.6707,1.673,1.674,1.6756,1.6768,1.6787,1.6787,1.6814,1.6807,1.6819,1.6829,1.683,1.6833,1.6832,1.6839,1.6849,1.6851,1.6837,1.6836,1.6836,0,1.6562,1.6596,1.6617,1.6628,1.6662,1.6671,1.6685,1.6708,1.6722,1.6743,1.6752,1.6774,1.6786,1.6804,1.6822,1.682,1.6849,1.6849,1.6858,1.6858,1.6863,1.6863,1.6876,1.6869,1.6869,1.6869,1.6869,0,1.6565,1.6581,1.6613,1.6626,1.6645,1.6666,1.6684,1.67,1.6721,1.6738,1.6753,1.6769,1.6791,1.681,1.6824,1.6846,1.6851,1.686,1.6864,1.686,1.6859,1.6868,1.6868,1.6869,1.6869,1.6869,1.6869,0,1.6557,1.6579,1.6603,1.6635,1.6644,1.6656,1.6684,1.6698,1.6714,1.6736,1.6742,1.6768,1.6791,1.6811,1.684,1.685,1.6874,1.6878,1.6867,1.6869,1.6878,1.6877,1.6898,1.6903,1.6891,1.6891,1.6891,0,1.6558,1.6571,1.6606,1.6619,1.6634,1.6655,1.667,1.6692,1.6707,1.6737,1.6747,1.6772,1.6793,1.683,1.6851,1.6875,1.688,1.6886,1.6884,1.688,1.6883,1.6882,1.6885,1.6886,1.6886,1.6886,1.6886,0,1.6558,1.657,1.6591,1.6618,1.6637,1.6658,1.668,1.669,1.6717,1.6733,1.6758,1.6775,1.6808,1.6833,1.686,1.6875,1.6886,1.6887,1.6891,1.6887,1.6881,1.6887,1.6869,1.6886,1.6886,1.6886,1.6886,1.6886,1.6556,1.657,1.6598,1.6622,1.6642,1.6663,1.6679,1.6699,1.6721,1.6751,1.6762,1.6789,1.6815,1.6853,1.6868,1.689,1.6891,1.6896,1.6897,1.6898,1.6899,1.6877,1.6894,1.6894,1.6894,1.6894,1.6894,0,1.6559,1.6579,1.6601,1.6633,1.6654,1.6664,1.669,1.6706,1.673,1.6753,1.6775,1.6806,1.6832,1.6857,1.6884,1.6896,1.6902,1.6903,1.6902,1.6907,1.6895,1.689,1.6898,1.6898,1.6898,1.6898,1.6898,1.6898,1.6562,1.6588,1.6603,1.6639,1.6659,1.6686,1.6701,1.6721,1.6741,1.6775,1.6798,1.6815,1.684,1.6869,1.6894,1.6901,1.6911,1.6911,1.6919,1.6907,1.6907,1.6906,1.6902,1.6912,1.6912,1.6929,1.6929,1.6929]}]]